Tracking 19199 objects as of 25-Jun-2018
HD Live streaming from Space Station
objects crossing your sky now

ATLAS CENTAUR DEB

Track ATLAS CENTAUR DEB now!


NORAD ID: 25253
Int'l Code: 1978-068C
Perigee: 827.3 km
Apogee: 35,629.1 km
Inclination: 21.8 °
Period: 639.9 minutes
Semi major axis: 24599 km
RCS: 0.1092 m2 (medium)
Launch date: June 29, 1978
Source: United States (US)
Launch site: AIR FORCE EASTERN TEST RANGE (AFETR)

Note: This is SATELLITE DEBRIS
aabbcc
Your satellite tracking list
Your tracking list is empty




NASA's NSSDC Master Catalog

Two Line Element Set (TLE):
1 25253U 78068C   18175.61539227 -.00000149 +00000-0 +32960-2 0  9990
2 25253 021.7971 288.5423 7073778 186.8777 339.0894 02.25020050172339
Source of the keplerian elements: AFSPC